This is the latest recevied weather packets stored in our database for station/object W4ZHA. If no packets are shown the sender has not sent any weather packets the latest 10 day(s).
| Time | Temp. | Humidity | Pressure | Rain* | Wind** | Luminosity | Snow |
|---|---|---|---|---|---|---|---|
| 1777665960 | 21.67° C | 50% | 1013.8 hPa | 0 mm | - | 282 W/m² | - |
| 1777665657 | 21.11° C | 51% | 1013.8 hPa | 0 mm | - | 285 W/m² | - |
| 1777665355 | 21.67° C | 52% | 1013.8 hPa | 0 mm | - | 290 W/m² | - |
| 1777665050 | 20.56° C | 52% | 1013.8 hPa | 0 mm | - | 273 W/m² | - |
| 1777664745 | 20.56° C | 53% | 1013.8 hPa | 0 mm | - | 317 W/m² | - |
| 1777664442 | 20° C | 54% | 1014.1 hPa | 0 mm | - | 265 W/m² | - |
| 1777664139 | 20.56° C | 52% | 1014.1 hPa | 0 mm | - | 258 W/m² | - |
| 1777663838 | 20° C | 52% | 1014.1 hPa | 0 mm | - | 244 W/m² | - |
| 1777663534 | 21.67° C | 50% | 1014.1 hPa | 0 mm | - | 287 W/m² | - |
| 1777663232 | 21.11° C | 52% | 1014.1 hPa | 0 mm | - | 299 W/m² | - |
| 1777662929 | 21.11° C | 53% | 1014.1 hPa | 0 mm | - | 286 W/m² | - |
| 1777662626 | 20.56° C | 54% | 1014.1 hPa | 0 mm | - | 256 W/m² | - |
| 1777662321 | 21.67° C | 53% | 1014.4 hPa | 0 mm | - | 238 W/m² | - |
| 1777662017 | 20.56° C | 54% | 1014.1 hPa | 0 mm | - | 212 W/m² | - |
| 1777661713 | 20.56° C | 55% | 1014.1 hPa | 0 mm | - | 228 W/m² | - |
| 1777661410 | 19.44° C | 56% | 1014.1 hPa | 0 mm | - | 304 W/m² | - |
| 1777661106 | 19.44° C | 56% | 1014.1 hPa | 0 mm | - | 209 W/m² | - |
| 1777660800 | 19.44° C | 56% | 1014.1 hPa | 0 mm | - | 215 W/m² | - |
| 1777660498 | 19.44° C | 55% | 1014.1 hPa | 0 mm | - | 265 W/m² | - |
| 1777660194 | 20° C | 53% | 1014.4 hPa | 0 mm | - | 282 W/m² | - |
| 1777659891 | 20° C | 54% | 1014.4 hPa | 0 mm | - | 316 W/m² | - |
| 1777659588 | 20° C | 55% | 1014.1 hPa | 0 mm | - | 254 W/m² | - |
| 1777659285 | 19.44° C | 55% | 1014.4 hPa | 0 mm | - | 206 W/m² | - |
| 1777658982 | 20.56° C | 55% | 1014.4 hPa | 0 mm | - | 236 W/m² | - |
| 1777658679 | 20.56° C | 54% | 1014.8 hPa | 0 mm | - | 253 W/m² | - |
* Rain latest hour (hover to see other rain measurements)
** Current wind speed in m/s (hover to see current wind gust speed)